Wind_Speed
4 4 5 5 6 6 7 8 9 10 11 12 13 14 15 16 17 17 18 19 20 20 21 22 22 22 22 22 23 24 25 25 25 25 24 23 22 21 20 19 17 15 13 10
4 4 4 5 5 6 7 8 9 10 11 12 13 14 15 15 16 17 18 18 19 20 20 21 22 22 23 23 23 24 24 25 25 25 26 25 24 23 22 21 19 18 16 13
3 3 3 4 4 5 7 8 9 10 11 12 12 13 14 15 16 17 17 18 18 19 19 20 21 22 23 23 23 24 24 24 25 26 26 26 26 25 23 22 21 19 18 16
1 1 2 3 4 5 6 7 8 9 10 11 12 13 14 15 15 16 17 17 18 18 19 19 20 21 22 22 23 23 24 24 24 25 26 27 26 26 26 24 22 21 20 18
1 1 2 3 4 5 6 7 8 9 10 11 12 12 13 14 15 15 16 17 17 18 18 18 19 19 20 21 22 22 23 23 24 24 25 26 27 27 27 26 24 23 22 20
4 4 4 4 5 5 6 7 8 9 10 11 11 12 13 13 14 15 15 16 17 17 17 18 18 18 19 20 20 21 21 22 23 24 24 25 26 27 27 27 26 24 23 22
7 7 7 7 7 7 8 9 9 10 10 11 12 12 13 13 14 14 15 16 16 17 17 17 18 18 18 18 19 19 20 21 21 22 23 24 25 25 26 26 26 25 24 23
10 10 11 10 10 10 11 11 12 12 12 13 13 13 14 14 15 15 15 16 16 16 17 17 17 17 18 18 18 18 19 19 20 20 21 22 23 23 24 25 25 24 23 23
13 13 13 13 13 13 14 14 14 15 15 15 15 15 15 16 16 16 16 17 17 17 17 17 17 17 17 17 17 17 18 18 18 19 19 20 20 21 22 23 23 23 22 22
16 16 16 15 16 16 16 17 17 17 17 17 17 17 17 17 17 18 18 18 18 18 18 18 18 18 18 18 18 17 18 18 18 18 18 18 18 19 19 20 20 21 21 20
18 18 18 18 18 18 18 18 18 18 19 19 19 19 20 20 20 20 20 20 19 19 19 19 19 19 18 18 18 18 18 18 18 17 17 17 17 16 16 17 17 18 19 19
20 20 20 20 21 21 21 21 21 21 21 21 22 22 22 22 22 22 22 22 22 21 21 21 21 20 20 20 19 19 19 18 18 18 17 17 16 16 15 14 14 15 15 16
22 22 23 23 23 24 24 24 24 25 25 25 25 25 25 25 25 25 25 24 24 24 24 24 23 23 22 21 21 20 20 20 19 19 18 18 17 16 15 14 13 13 13 13
25 26 26 26 27 27 28 28 28 28 28 28 28 28 28 28 28 28 28 28 27 27 27 27 26 26 25 24 23 23 22 22 21 21 20 19 18 18 17 15 14 13 12 12
29 29 30 30 31 31 31 32 32 32 32 32 32 32 32 31 32 32 32 31 31 30 30 30 29 30 29 28 26 26 25 24 24 23 22 21 21 20 18 17 16 15 14 12
33 34 34 35 35 35 36 36 36 36 36 37 37 36 36 35 35 35 35 35 34 34 34 33 33 33 33 32 30 29 28 27 26 26 25 24 23 22 21 20 19 18 16 15
37 38 39 39 40 40 40 40 41 41 41 40 40 40 39 39 39 39 39 39 38 38 38 38 37 37 36 35 34 33 32 31 30 29 28 27 26 25 24 23 22 21 20 18
42 42 43 43 44 44 45 45 44 44 43 43 42 42 42 41 42 42 42 42 42 41 41 41 41 40 40 39 39 37 36 35 34 33 32 31 29 28 27 26 25 24 23 22
44 45 45 46 46 47 47 47 47 46 45 45 44 44 44 43 43 43 43 43 43 43 44 44 45 44 44 44 44 42 41 40 39 38 36 35 34 32 31 30 29 28 27 26
46 46 47 47 47 48 48 47 47 46 46 45 45 45 45 45 45 45 45 46 46 46 46 46 47 47 48 48 48 47 46 45 44 43 42 40 38 37 36 34 33 31 30 29
46 46 47 47 47 46 45 45 44 44 43 43 44 45 45 46 46 47 47 47 47 48 48 48 48 49 50 50 51 51 51 50 49 48 47 46 44 42 41 39 38 36 35 33
45 45 45 44 43 42 42 42 42 43 43 44 44 44 45 46 47 47 48 49 49 49 50 50 50 51 51 52 53 54 54 54 54 53 52 51 50 48 46 45 43 41 40 38
42 42 41 40 39 40 40 41 41 42 43 44 45 46 47 48 49 49 50 51 52 53 53 53 53 53 54 54 55 56 57 57 58 57 57 56 55 54 52 51 49 47 45 43
38 38 38 38 39 39 40 41 42 44 45 46 47 48 49 51 52 53 54 55 56 56 57 57 58 58 58 58 58 59 59 60 61 61 61 61 60 59 58 56 54 52 51 49
38 38 38 39 39 40 41 43 44 46 47 48 50 51 52 54 55 56 57 58 59 60 60 61 61 61 62 62 62 62 62 62 63 63 64 65 64 64 62 61 59 57 55 53
38 39 39 40 41 42 43 44 46 47 49 50 52 54 55 57 58 59 60 61 62 63 63 64 64 64 64 63 63 63 64 64 64 65 66 66 67 67 66 65 64 62 60 58
40 40 41 42 43 44 45 46 47 49 50 52 53 55 56 58 59 60 62 63 63 64 65 65 65 65 64 64 63 63 63 64 65 65 66 67 68 68 69 68 67 66 64 62
Wind_Direction
92 76 65 55 46 37 31 27 25 23 21 21 20 20 21 20 19 20 21 22 23 25 26 26 26 26 26 25 24 24 24 25 25 25 23 21 19 19 18 17 15 12 6 358
96 79 64 51 42 34 27 22 20 20 20 19 20 20 20 19 18 19 20 21 22 23 25 25 26 26 26 25 24 24 24 25 25 25 24 23 22 21 19 19 18 18 15 9
93 78 65 48 34 27 23 20 19 18 18 17 17 16 15 15 15 15 17 18 19 20 21 22 23 23 23 24 24 23 23 24 25 25 24 24 23 22 21 20 20 20 19 17
90 52 40 30 24 18 14 13 14 15 14 13 12 10 9 9 10 12 13 14 15 16 16 17 18 19 20 21 21 22 22 22 23 24 24 24 24 24 23 23 24 24 25 25
270 311 336 349 352 354 356 360 1 4 5 5 5 5 6 5 4 5 7 8 9 9 10 12 13 15 16 17 18 19 20 21 22 23 23 23 24 24 25 26 27 28 29 31
268 279 290 307 315 325 331 336 341 345 349 352 353 354 356 356 357 358 360 1 3 3 4 5 7 9 10 12 14 15 16 18 19 21 22 23 24 25 26 27 28 30 32 33
269 275 280 289 295 302 307 315 319 324 328 332 337 340 342 344 347 349 352 354 355 357 358 359 1 2 4 5 7 9 12 14 16 18 20 21 23 25 26 27 29 31 33 34
271 275 279 284 287 290 294 299 304 309 314 318 322 326 330 333 335 337 340 343 345 347 350 351 353 355 357 359 1 3 5 8 11 14 16 18 20 22 24 26 28 31 33 35
270 275 278 280 282 284 287 291 296 300 304 307 311 314 318 321 325 328 330 332 334 336 338 341 344 346 349 351 354 356 358 1 4 7 9 12 16 18 20 23 26 29 31 34
268 271 274 277 279 281 284 288 292 295 298 301 304 307 310 312 315 318 321 324 326 327 328 330 333 335 338 341 344 346 349 352 354 357 0 4 7 11 14 18 21 26 29 32
267 269 272 274 277 280 282 286 289 292 295 297 300 302 305 307 309 311 313 315 317 319 321 322 324 325 327 330 333 335 338 342 345 348 350 353 356 0 4 9 14 18 23 27
267 269 271 274 276 279 282 284 287 289 292 294 296 298 300 302 304 305 306 308 309 310 312 314 315 317 319 321 323 325 328 331 333 336 339 341 344 348 351 356 1 6 11 17
267 269 272 274 277 279 282 284 286 288 290 291 293 295 296 297 299 300 301 303 304 305 306 307 309 309 311 312 314 316 318 320 322 324 327 329 331 333 335 338 343 348 354 360
268 270 272 274 276 278 280 282 285 286 288 289 290 292 293 294 295 296 297 299 300 301 302 302 303 303 303 305 306 307 308 310 313 314 316 317 319 321 322 322 324 327 332 337
269 271 273 274 276 278 280 281 283 284 286 287 289 290 291 292 293 294 294 295 296 297 297 297 298 297 298 299 300 301 301 302 304 305 307 308 309 309 310 311 312 312 314 316
269 271 273 275 276 278 279 281 282 284 285 287 288 289 290 290 291 291 292 292 292 293 293 293 293 293 294 295 296 296 296 296 297 297 298 299 300 301 301 301 302 302 302 303
271 273 274 276 277 279 280 281 283 284 285 286 287 287 288 288 289 289 290 290 290 290 290 289 289 290 290 291 291 291 291 291 291 291 291 291 292 293 293 293 293 293 293 293
271 273 274 276 278 279 281 282 284 285 286 286 287 287 287 288 288 288 288 288 288 288 288 287 287 287 286 286 286 286 286 286 286 286 286 285 285 285 286 286 286 286 286 286
271 272 274 275 277 279 280 282 283 284 285 286 287 288 288 288 288 288 288 287 287 286 286 285 285 284 284 283 282 282 281 281 281 281 281 281 280 280 280 280 280 279 279 280
270 272 273 275 276 278 279 280 282 283 284 285 286 287 288 289 289 289 289 288 287 286 285 284 283 283 282 281 281 280 279 278 277 277 276 276 276 275 275 274 274 274 274 273
269 271 273 274 276 277 277 278 280 281 283 284 285 287 288 289 289 289 289 289 289 289 288 286 284 282 281 280 279 278 276 275 274 273 272 272 271 271 271 270 270 269 269 269
267 269 271 273 274 275 276 277 278 280 282 283 285 286 288 289 290 290 290 290 290 289 288 287 286 284 282 280 279 277 276 274 272 270 269 268 267 266 266 266 266 265 265 265
267 268 269 270 272 274 275 277 279 281 283 285 286 288 289 290 291 291 291 291 291 291 290 288 287 285 283 281 279 277 275 273 271 269 267 265 264 263 263 262 262 262 262 261
266 267 268 269 272 274 276 278 280 282 284 286 288 289 290 291 292 292 292 292 292 291 290 290 288 287 285 282 280 277 274 272 270 268 266 264 262 261 260 260 259 259 259 258
264 266 267 270 272 275 278 280 282 285 287 288 290 291 292 293 293 294 294 294 294 293 292 291 290 288 286 283 280 277 274 271 269 266 264 263 261 259 258 257 257 256 256 256
264 266 269 272 275 277 280 282 284 286 289 291 292 293 294 295 296 297 297 297 296 296 295 294 292 290 288 285 281 278 274 271 268 265 263 261 259 258 256 255 255 254 254 253
265 268 271 274 277 279 282 285 287 289 291 293 294 296 297 298 299 299 299 299 299 298 297 296 295 293 290 287 283 279 275 271 267 264 262 260 258 256 255 254 253 252 252 251
Height
5881 5880 5879 5879 5878 5877 5875 5874 5872 5871 5868 5866 5863 5860 5858 5854 5851 5848 5844 5840 5836 5832 5828 5824 5820 5815 5811 5807 5802 5798 5793 5788 5783 5778 5773 5768 5763 5758 5753 5749 5744 5741 5737 5734
5881 5881 5880 5880 5879 5877 5876 5875 5873 5871 5869 5867 5864 5862 5859 5856 5853 5849 5846 5842 5838 5835 5831 5827 5823 5818 5814 5809 5805 5800 5796 5791 5786 5781 5776 5770 5765 5760 5755 5750 5746 5742 5738 5734
5882 5881 5881 5881 5880 5878 5877 5876 5874 5872 5871 5868 5866 5863 5860 5857 5854 5851 5848 5844 5840 5837 5833 5829 5825 5821 5816 5812 5808 5803 5799 5794 5789 5784 5778 5773 5768 5763 5757 5752 5748 5743 5739 5735
5882 5883 5882 5883 5880 5879 5878 5876 5875 5873 5871 5869 5866 5864 5861 5858 5855 5852 5849 5846 5842 5838 5835 5831 5827 5823 5819 5815 5810 5806 5801 5797 5792 5787 5782 5776 5771 5766 5760 5755 5750 5745 5741 5736
5882 5882 5882 5881 5880 5879 5878 5876 5875 5873 5871 5869 5867 5864 5862 5859 5856 5853 5850 5847 5843 5840 5836 5832 5829 5825 5821 5817 5813 5808 5804 5799 5795 5790 5785 5780 5774 5769 5764 5758 5753 5748 5744 5739
5881 5881 5881 5881 5880 5878 5878 5876 5874 5873 5871 5869 5867 5865 5863 5859 5856 5853 5850 5847 5844 5841 5837 5834 5830 5826 5822 5819 5815 5811 5806 5802 5797 5793 5788 5783 5778 5773 5768 5762 5757 5752 5748 5743
5880 5879 5879 5879 5878 5878 5878 5876 5873 5871 5870 5868 5866 5864 5862 5859 5856 5853 5850 5847 5844 5841 5838 5834 5831 5827 5823 5820 5816 5812 5808 5804 5800 5795 5791 5786 5782 5777 5772 5767 5762 5757 5752 5747
5877 5877 5879 5877 5876 5876 5875 5872 5871 5869 5868 5866 5864 5862 5860 5858 5855 5852 5850 5847 5844 5841 5838 5834 5831 5828 5824 5821 5817 5813 5810 5806 5802 5798 5794 5789 5785 5780 5776 5771 5766 5761 5757 5753
5875 5876 5875 5873 5873 5872 5871 5870 5868 5867 5865 5864 5862 5860 5858 5856 5853 5851 5848 5845 5843 5840 5837 5834 5831 5828 5824 5821 5818 5814 5811 5807 5803 5799 5796 5792 5788 5784 5779 5775 5771 5766 5762 5758
5871 5871 5870 5870 5869 5868 5867 5866 5865 5863 5862 5860 5859 5857 5855 5853 5851 5848 5846 5843 5841 5838 5835 5833 5830 5827 5824 5821 5818 5814 5811 5808 5804 5801 5797 5794 5790 5786 5782 5778 5775 5770 5766 5762
5866 5866 5866 5865 5864 5864 5863 5862 5861 5860 5858 5857 5855 5853 5851 5849 5847 5845 5843 5840 5838 5836 5833 5830 5828 5825 5822 5819 5817 5814 5811 5808 5804 5801 5798 5794 5791 5788 5785 5781 5778 5774 5770 5766
5861 5861 5861 5860 5859 5859 5858 5857 5856 5855 5853 5852 5850 5849 5847 5845 5843 5841 5839 5836 5834 5832 5830 5827 5825 5822 5820 5817 5815 5812 5809 5807 5804 5801 5798 5795 5792 5789 5786 5783 5780 5776 5773 5770
5855 5855 5855 5854 5854 5853 5852 5851 5850 5849 5848 5847 5845 5843 5842 5840 5838 5836 5834 5832 5830 5828 5825 5823 5821 5818 5816 5814 5811 5809 5807 5804 5802 5799 5797 5794 5791 5788 5786 5783 5780 5778 5775 5772
5848 5848 5848 5848 5847 5846 5845 5845 5844 5843 5841 5840 5839 5837 5836 5834 5832 5830 5828 5826 5824 5822 5820 5818 5816 5813 5811 5809 5807 5805 5803 5801 5799 5796 5794 5792 5789 5787 5784 5782 5780 5777 5775 5772
5840 5840 5840 5840 5839 5839 5838 5837 5836 5835 5834 5832 5831 5830 5828 5826 5824 5822 5820 5819 5817 5815 5813 5811 5809 5807 5805 5803 5802 5800 5798 5796 5794 5792 5790 5788 5786 5784 5782 5780 5778 5776 5773 5771
5832 5831 5831 5831 5830 5829 5829 5828 5827 5826 5825 5823 5822 5820 5819 5817 5816 5814 5812 5810 5809 5807 5805 5803 5801 5799 5797 5796 5795 5793 5792 5790 5788 5787 5785 5783 5782 5780 5778 5777 5775 5773 5771 5769
5821 5821 5821 5820 5819 5819 5818 5817 5816 5815 5814 5813 5811 5810 5808 5807 5805 5804 5802 5800 5798 5797 5795 5793 5791 5790 5788 5787 5786 5785 5783 5782 5781 5779 5778 5776 5775 5774 5773 5771 5770 5768 5767 5765
5810 5809 5809 5808 5808 5807 5806 5805 5804 5803 5802 5801 5799 5798 5797 5796 5794 5792 5790 5789 5787 5785 5783 5782 5780 5779 5777 5776 5775 5774 5774 5773 5772 5771 5769 5768 5767 5766 5765 5764 5763 5762 5761 5760
5797 5797 5797 5796 5795 5794 5793 5792 5791 5790 5789 5788 5787 5785 5784 5783 5781 5779 5778 5776 5774 5773 5771 5769 5767 5766 5765 5763 5762 5762 5762 5761 5761 5760 5759 5758 5758 5757 5756 5755 5755 5754 5754 5753
5785 5785 5784 5784 5783 5782 5781 5780 5779 5778 5777 5775 5774 5772 5771 5769 5767 5766 5764 5762 5760 5759 5758 5756 5754 5752 5750 5749 5748 5747 5747 5747 5747 5747 5747 5746 5746 5746 5745 5745 5744 5744 5744 5744
5772 5772 5771 5771 5770 5769 5769 5768 5767 5765 5764 5763 5761 5760 5758 5756 5754 5752 5750 5748 5745 5743 5741 5740 5739 5737 5735 5733 5732 5731 5731 5731 5731 5731 5732 5732 5732 5732 5732 5733 5733 5733 5733 5733
5759 5759 5758 5758 5757 5757 5756 5755 5754 5753 5752 5750 5749 5747 5745 5742 5740 5737 5735 5733 5731 5728 5726 5724 5722 5720 5718 5716 5715 5713 5713 5712 5712 5713 5714 5714 5715 5716 5717 5718 5718 5719 5720 5720
5746 5746 5746 5746 5745 5745 5744 5743 5742 5740 5739 5737 5735 5733 5731 5728 5726 5723 5720 5717 5714 5711 5709 5706 5704 5702 5700 5698 5696 5694 5693 5692 5692 5693 5693 5694 5696 5697 5699 5700 5702 5703 5705 5706
5733 5734 5734 5734 5733 5732 5731 5730 5729 5727 5725 5723 5721 5718 5716 5713 5709 5706 5703 5700 5697 5694 5690 5687 5684 5682 5680 5677 5675 5674 5672 5671 5670 5671 5671 5672 5674 5676 5678 5681 5683 5685 5687 5689
5721 5721 5721 5721 5721 5720 5719 5717 5715 5713 5710 5708 5705 5702 5699 5696 5693 5689 5685 5681 5677 5674 5670 5666 5663 5660 5657 5654 5652 5650 5648 5647 5646 5647 5647 5648 5650 5653 5655 5659 5662 5665 5668 5671
5708 5709 5708 5708 5707 5706 5705 5703 5701 5698 5695 5692 5689 5685 5681 5677 5673 5669 5665 5660 5656 5652 5648 5644 5640 5636 5633 5630 5627 5624 5623 5621 5621 5621 5621 5623 5625 5627 5631 5634 5638 5642 5646 5650
5695 5695 5695 5694 5693 5692 5690 5688 5685 5682 5679 5676 5672 5668 5664 5659 5654 5650 5645 5640 5635 5630 5625 5620 5616 5611 5607 5604 5601 5598 5595 5594 5593 5593 5594 5596 5598 5601 5604 5608 5613 5618 5623 5627